Wind_Speed
27 28 29 30 31 32 32 32 32 32 32 32 32 32 33 33 34 34 34 34 34 34 34 34 34 34 34 34 33 33 32 32 31 30 29 27 26 24 23 22 21 21
25 27 28 28 29 31 31 31 31 31 31 31 31 31 31 32 32 33 33 33 34 34 34 35 35 35 34 33 32 32 32 33 32 31 30 29 28 26 25 24 23 22
24 25 26 27 28 29 30 30 31 31 31 30 30 30 30 31 31 31 32 32 33 34 35 35 35 35 35 35 34 33 32 32 32 32 31 29 28 27 27 26 26 25
22 23 25 26 27 27 28 29 30 30 30 29 29 29 30 30 31 31 32 33 33 34 35 35 35 36 36 36 37 36 36 35 34 33 31 30 29 28 27 28 28 28
21 22 23 24 24 25 27 28 28 29 29 29 29 29 29 30 31 32 33 33 34 34 35 35 36 37 37 38 38 39 39 39 38 37 35 32 30 29 28 28 28 29
19 20 21 22 23 24 26 26 26 27 27 28 28 28 29 29 30 31 32 33 34 35 36 36 37 37 38 39 39 40 40 40 40 40 39 36 34 32 29 28 27 28
18 19 20 21 22 23 24 24 23 24 25 26 27 27 28 29 30 31 32 33 34 36 37 38 38 38 38 39 40 41 42 42 42 42 42 40 38 36 34 31 29 28
17 18 19 20 21 21 22 23 23 23 24 26 27 28 29 30 31 32 33 34 35 36 37 38 39 40 40 41 41 42 43 43 44 44 44 43 41 40 39 36 35 33
17 18 19 20 20 21 22 23 24 25 25 26 28 29 31 32 32 33 33 34 35 36 37 38 39 40 41 42 43 43 43 44 44 45 45 45 44 43 42 41 40 39
16 17 18 19 21 21 21 22 24 25 26 27 29 30 32 32 33 33 33 34 35 36 37 37 38 39 40 42 43 44 45 46 46 46 47 47 46 46 45 44 43 43
16 17 18 19 20 21 22 23 25 27 28 30 31 32 33 33 33 33 33 35 36 37 38 38 39 39 40 41 43 44 46 47 48 49 49 49 49 48 47 47 46 46
17 18 19 20 22 23 24 25 27 28 30 32 33 34 35 36 35 35 35 37 38 39 40 40 41 41 41 42 44 45 46 48 50 51 51 51 51 51 50 49 49 49
19 20 22 23 24 25 26 27 28 30 33 35 37 38 38 39 39 39 39 41 42 43 44 44 45 45 46 46 46 46 47 49 51 53 53 54 53 53 52 52 51 50
21 22 24 26 27 28 29 30 32 34 37 39 40 40 41 41 41 42 43 44 46 46 47 48 49 50 50 51 51 51 51 51 53 54 56 57 57 56 56 56 55 54
24 25 27 28 30 31 32 34 35 37 38 40 41 41 42 43 43 44 46 48 49 50 50 51 52 53 53 54 54 55 55 55 56 57 58 60 61 61 61 61 60 59
27 29 30 32 33 34 35 35 36 38 39 41 42 43 44 45 46 47 48 49 50 51 53 54 54 55 55 56 56 57 57 57 58 59 60 62 63 64 65 65 65 64
30 32 33 34 35 36 36 37 38 40 42 43 44 45 46 48 49 49 50 51 52 53 54 55 55 56 57 57 58 59 59 59 59 60 62 63 65 66 68 68 69 69
33 34 35 36 36 37 38 39 40 42 45 46 46 47 48 50 51 51 52 54 55 55 55 56 57 58 59 60 60 61 61 61 62 63 64 66 67 68 70 71 72 72
35 36 36 37 38 39 40 41 42 44 47 48 47 48 50 52 53 53 54 55 56 56 57 58 59 61 62 63 64 64 64 64 65 66 67 69 70 71 72 73 74 75
36 37 38 39 40 41 42 43 44 46 48 49 49 50 52 54 55 56 57 58 58 58 59 61 62 64 65 66 67 67 68 68 69 69 70 72 73 74 75 76 77 78
37 38 40 42 43 43 44 45 47 49 51 51 51 53 55 56 58 59 61 61 61 62 63 64 66 68 69 70 70 71 72 72 73 74 75 76 77 78 79 79 80 80
38 40 43 44 45 45 46 47 49 52 53 53 54 56 58 60 61 62 63 64 64 65 66 68 70 71 72 73 74 75 76 76 77 78 79 80 81 82 83 83 83 83
42 44 45 46 47 47 48 50 52 54 55 55 57 59 62 63 63 63 65 66 68 69 70 71 72 73 75 76 77 78 79 80 81 82 83 84 85 86 87 87 86 86
45 47 48 49 49 49 51 52 55 56 57 58 60 62 65 66 66 66 68 70 71 72 73 74 75 76 77 78 79 81 82 83 84 85 87 88 90 91 91 91 90 89
49 50 50 51 51 52 53 55 57 58 59 61 63 66 67 69 70 71 72 73 75 76 77 77 78 79 80 81 82 83 84 85 87 89 91 92 94 95 95 95 94 91
52 52 52 53 54 54 56 57 59 60 62 64 67 69 70 72 73 75 75 76 78 79 80 80 81 82 83 84 85 87 88 89 90 91 93 95 97 98 98 98 96 93
Wind_Direction
50 48 47 46 44 43 42 40 39 38 37 36 35 35 34 32 31 30 29 28 27 26 24 23 21 20 18 15 13 11 10 8 6 3 2 1 1 1 1 1 0 0
47 46 45 44 43 41 40 38 37 36 35 33 31 31 30 29 28 27 26 25 24 23 22 20 19 18 16 15 14 12 10 8 6 3 360 357 355 354 353 353 352 352
44 43 42 40 39 38 36 35 35 33 32 29 27 26 25 24 24 23 23 22 21 20 19 17 16 15 14 13 12 11 9 7 6 3 1 357 354 351 349 347 346 345
42 40 38 37 35 34 32 32 31 30 29 27 25 23 21 19 19 18 18 18 18 17 15 14 13 12 11 10 8 7 6 5 4 3 0 357 354 350 347 345 343 342
38 36 35 33 31 30 29 28 27 26 25 23 22 20 18 16 14 13 13 13 13 13 12 11 10 9 8 6 5 4 3 2 1 0 359 356 353 350 345 341 338 337
34 33 31 28 27 26 24 23 22 21 20 20 19 17 15 13 12 10 9 8 8 7 7 8 7 6 5 3 1 0 359 358 358 357 356 354 352 349 346 342 337 333
28 27 25 23 22 21 19 18 17 17 17 17 16 15 13 11 9 8 6 5 4 3 3 3 3 2 2 360 358 357 355 354 354 353 352 351 349 347 345 342 339 335
18 18 17 15 15 14 13 11 11 11 12 12 11 10 9 7 6 5 3 2 0 360 359 359 358 358 357 356 355 354 352 350 349 348 348 347 346 345 343 340 338 336
8 9 8 5 5 6 5 4 3 4 5 6 6 5 5 3 2 1 359 358 357 357 356 356 355 354 353 352 351 350 349 348 346 345 345 344 342 341 340 337 334 333
358 359 358 356 355 356 356 356 357 357 359 0 0 0 360 359 357 356 355 355 354 353 353 353 353 352 351 350 349 348 346 345 344 344 343 342 340 338 336 334 332 329
349 350 349 348 346 346 347 349 351 352 353 354 355 355 354 353 352 352 351 350 350 349 349 349 350 350 349 348 348 347 345 343 342 343 342 341 340 338 335 333 330 327
340 342 341 340 339 339 340 343 345 347 349 350 350 350 349 348 347 347 346 345 344 344 344 344 344 344 344 345 345 345 344 342 341 341 341 340 339 338 335 331 328 326
332 333 334 334 333 333 334 337 340 344 346 347 346 346 344 344 343 342 341 340 338 338 338 338 339 338 338 339 339 339 339 339 339 339 339 339 338 337 334 331 328 326
323 326 328 328 327 327 330 335 339 343 344 344 342 341 340 340 339 338 335 333 332 332 333 334 334 334 334 334 333 334 334 335 335 336 336 336 336 335 333 331 329 327
317 320 321 321 321 324 330 335 338 339 339 339 338 336 336 336 336 333 330 328 328 328 329 330 331 331 331 331 331 331 331 331 332 332 333 333 333 332 331 330 329 327
314 316 317 318 320 325 330 333 333 333 334 334 334 333 333 333 332 330 328 326 325 326 327 328 328 329 329 329 329 329 328 328 328 328 329 329 330 330 329 328 327 326
312 313 314 316 320 324 326 327 327 329 331 332 332 331 330 330 330 329 327 325 325 325 325 326 326 326 327 327 327 326 326 325 325 325 326 326 326 327 326 325 324 323
307 309 312 315 318 320 321 323 326 328 328 329 329 329 328 328 327 327 326 324 324 325 325 325 325 325 324 324 324 324 324 324 323 323 323 323 324 324 324 323 322 321
303 306 310 312 315 317 320 322 324 325 325 326 327 327 326 326 326 325 324 323 323 323 324 324 324 324 324 324 324 324 324 323 323 322 322 322 322 322 321 321 320 319
302 305 308 311 313 317 319 321 322 322 323 324 325 325 324 324 324 324 323 322 322 323 323 324 324 324 324 324 324 324 323 323 322 321 321 320 320 320 319 319 318 317
303 306 308 311 314 316 318 319 319 320 321 322 322 323 323 323 323 323 322 323 323 323 324 323 323 323 324 324 323 323 322 322 321 320 320 319 319 318 318 317 316 315
305 307 309 311 313 314 315 316 317 317 318 319 320 321 321 321 321 322 322 323 324 323 323 323 323 323 323 323 323 323 322 321 321 320 319 318 318 317 317 316 315 314
306 308 309 311 312 312 312 313 314 314 315 316 318 319 319 319 319 321 322 323 323 323 322 322 322 321 321 322 322 321 321 320 320 319 318 317 317 316 316 315 315 314
306 307 308 310 310 310 310 311 311 311 312 313 315 317 317 317 318 319 320 321 321 321 321 321 321 320 320 320 320 320 320 319 318 318 317 317 316 316 315 315 314 313
304 306 307 308 308 308 308 308 308 309 311 312 313 315 315 316 316 317 318 319 319 320 320 320 319 319 319 319 319 318 318 318 318 318 317 316 316 315 314 314 313 313
302 304 305 306 306 305 306 306 307 309 310 311 312 314 315 315 315 316 317 318 318 318 319 319 319 318 318 318 317 317 317 318 318 317 316 315 314 314 313 313 313 312
Height
10697 10696 10694 10693 10691 10690 10688 10687 10685 10684 10682 10681 10679 10678 10676 10674 10672 10671 10669 10667 10665 10663 10661 10659 10657 10655 10653 10650 10648 10646 10644 10642 10640 10638 10637 10635 10634 10632 10631 10630 10628 10627
10699 10697 10696 10694 10693 10691 10690 10688 10687 10685 10683 10682 10680 10679 10677 10676 10674 10672 10670 10668 10666 10664 10662 10660 10658 10656 10654 10652 10649 10647 10645 10642 10640 10638 10636 10634 10633 10631 10630 10628 10627 10626
10700 10698 10697 10695 10694 10692 10691 10690 10688 10686 10684 10683 10681 10679 10678 10676 10675 10674 10672 10670 10668 10665 10663 10661 10659 10656 10654 10651 10649 10647 10646 10643 10641 10639 10637 10635 10633 10631 10629 10627 10625 10624
10701 10699 10698 10696 10695 10694 10692 10690 10688 10687 10686 10684 10683 10681 10679 10677 10675 10674 10672 10670 10668 10665 10663 10661 10658 10656 10653 10651 10649 10646 10645 10643 10641 10639 10637 10635 10632 10630 10628 10626 10624 10622
10701 10700 10698 10697 10696 10694 10693 10691 10689 10688 10687 10685 10683 10681 10679 10677 10675 10673 10671 10669 10667 10665 10664 10661 10658 10655 10653 10650 10648 10646 10643 10641 10639 10637 10636 10634 10632 10630 10628 10625 10623 10621
10701 10700 10699 10697 10696 10694 10692 10691 10690 10689 10687 10685 10683 10681 10679 10677 10675 10673 10671 10669 10667 10665 10663 10661 10658 10656 10653 10650 10647 10645 10643 10640 10638 10635 10633 10632 10630 10629 10627 10625 10623 10620
10701 10700 10699 10697 10696 10694 10693 10692 10691 10689 10688 10686 10684 10682 10680 10678 10676 10673 10671 10669 10666 10664 10661 10659 10657 10655 10652 10650 10647 10644 10641 10638 10636 10634 10632 10630 10628 10626 10624 10623 10621 10619
10701 10700 10698 10697 10695 10694 10693 10692 10690 10688 10687 10685 10683 10681 10679 10677 10675 10673 10671 10668 10666 10663 10661 10658 10656 10653 10651 10648 10646 10643 10640 10637 10634 10632 10630 10628 10625 10623 10621 10619 10617 10616
10700 10699 10697 10696 10695 10693 10692 10690 10688 10687 10685 10684 10682 10680 10678 10676 10674 10672 10670 10668 10666 10664 10661 10658 10656 10653 10650 10647 10645 10642 10639 10637 10633 10630 10627 10625 10622 10620 10617 10615 10613 10611
10699 10698 10696 10695 10693 10692 10690 10689 10687 10686 10684 10682 10680 10678 10676 10674 10672 10671 10669 10667 10665 10663 10661 10659 10656 10653 10650 10647 10644 10641 10638 10635 10632 10629 10626 10623 10620 10617 10614 10612 10609 10607
10697 10696 10694 10693 10691 10690 10688 10687 10685 10683 10682 10680 10678 10676 10675 10673 10671 10669 10667 10664 10662 10660 10658 10657 10655 10652 10650 10647 10644 10640 10636 10632 10629 10627 10624 10622 10619 10615 10612 10609 10606 10603
10695 10694 10692 10691 10689 10688 10686 10685 10683 10681 10680 10678 10676 10674 10672 10670 10668 10666 10664 10661 10659 10657 10655 10654 10652 10650 10647 10645 10642 10639 10636 10631 10628 10625 10622 10619 10616 10613 10610 10607 10603 10600
10693 10691 10690 10688 10687 10685 10684 10683 10681 10679 10677 10675 10673 10671 10668 10666 10664 10661 10659 10657 10655 10653 10651 10649 10647 10645 10643 10641 10639 10637 10633 10630 10626 10622 10619 10617 10614 10611 10608 10605 10601 10598
10690 10689 10687 10686 10684 10683 10681 10679 10677 10674 10672 10671 10669 10667 10665 10663 10661 10658 10656 10653 10651 10649 10647 10645 10642 10640 10637 10635 10633 10631 10629 10625 10622 10618 10615 10612 10610 10607 10604 10601 10598 10594
10688 10686 10685 10683 10681 10680 10677 10675 10673 10671 10670 10668 10667 10665 10663 10661 10659 10657 10654 10651 10648 10646 10643 10641 10638 10635 10633 10630 10627 10624 10622 10619 10616 10613 10610 10606 10603 10601 10597 10594 10592 10589
10685 10683 10681 10679 10677 10675 10673 10671 10670 10669 10668 10667 10665 10662 10660 10658 10657 10655 10651 10648 10645 10642 10639 10636 10633 10630 10627 10624 10622 10619 10617 10614 10611 10607 10604 10601 10597 10594 10591 10587 10584 10582
10681 10679 10677 10675 10673 10672 10670 10669 10668 10666 10664 10663 10660 10658 10656 10654 10653 10650 10647 10643 10641 10638 10635 10631 10628 10625 10622 10620 10617 10614 10612 10609 10606 10602 10599 10595 10592 10588 10584 10580 10576 10573
10678 10676 10674 10672 10670 10669 10668 10666 10664 10661 10659 10657 10655 10653 10651 10649 10648 10645 10642 10638 10635 10633 10630 10626 10623 10620 10617 10615 10612 10609 10605 10602 10599 10596 10592 10589 10585 10582 10578 10574 10569 10565
10674 10672 10670 10668 10667 10665 10664 10661 10659 10657 10654 10652 10651 10649 10647 10645 10642 10640 10637 10633 10631 10627 10624 10620 10616 10613 10610 10607 10604 10601 10598 10595 10591 10588 10584 10581 10578 10574 10571 10567 10563 10558
10671 10669 10666 10664 10662 10661 10658 10656 10654 10651 10649 10647 10646 10644 10642 10640 10637 10634 10631 10628 10625 10621 10617 10613 10609 10606 10603 10600 10597 10593 10590 10586 10583 10579 10576 10572 10569 10566 10563 10559 10555 10550
10667 10664 10661 10659 10657 10655 10653 10651 10649 10646 10644 10642 10640 10639 10637 10634 10631 10628 10624 10621 10618 10614 10610 10606 10602 10599 10596 10592 10589 10585 10581 10578 10574 10570 10566 10562 10559 10556 10553 10550 10546 10541
10661 10658 10656 10654 10652 10650 10648 10646 10644 10641 10638 10636 10635 10633 10631 10628 10626 10622 10618 10614 10611 10607 10603 10599 10595 10591 10587 10584 10580 10576 10572 10568 10565 10561 10557 10553 10549 10545 10541 10538 10535 10531
10654 10652 10650 10648 10647 10645 10642 10641 10639 10635 10633 10631 10629 10626 10624 10621 10619 10616 10613 10608 10604 10600 10596 10592 10588 10584 10580 10576 10572 10567 10563 10559 10555 10551 10547 10542 10538 10533 10529 10525 10522 10518
10649 10646 10644 10643 10641 10639 10637 10635 10633 10630 10627 10625 10623 10620 10617 10614 10612 10610 10607 10602 10597 10593 10590 10586 10582 10577 10573 10569 10564 10560 10555 10551 10545 10540 10535 10530 10525 10520 10516 10512 10508 10505
10643 10641 10639 10637 10636 10634 10632 10630 10627 10624 10621 10618 10616 10614 10611 10607 10604 10602 10600 10596 10591 10586 10582 10578 10574 10569 10564 10560 10556 10552 10548 10543 10537 10530 10523 10517 10512 10506 10501 10497 10494 10490
10637 10636 10634 10632 10630 10628 10626 10624 10621 10618 10615 10611 10607 10606 10604 10600 10596 10593 10592 10589 10584 10578 10573 10569 10564 10560 10555 10550 10546 10542 10537 10533 10527 10521 10513 10506 10500 10495 10488 10483 10478 10475